Flag for U.S.A. Weather past 2 weeks in Dickinson, North Dakota, U.S.A.

Now
74 °F

Broken clouds.


Feels Like: 77 °F
Forecast: 53 / 75 °F
Wind: 22 mph from Northwest

Location: Dickinson Municipal Airport

Current Time: Jul 26, 2014 at 1:32:20 PM

Latest Report: Jul 26, 2014 at 12:56 PM


Visibility: 10 mi

Pressure: 29.93 "Hg

Humidity: 41%

Dew point: 49 °F

Location of DickinsonLocation

Historic Weather in Dickinson — Graph

°F

Dickinson temperature yesterday

Maximum temperature yesterday: 83 °F (at 4:56 PM)
Minimum temperature yesterday: 51 °F (at 4:56 AM)
Average temperature yesterday: 68 °F

Past Weeks' High & Low Weather Summary

 TemperatureHumidityPressure
High91 °F (Jul 20, 3:56 PM)100% (Jul 22, 2:59 AM)30.33 "Hg (Jul 22, 2:59 AM)
Low43 °F (Jul 15, 2:56 AM)26% (Jul 13, 1:56 PM)29.60 "Hg (Jul 20, 2:56 AM)
Average67 °F67%29.95 "Hg
* Reported Jul 11 11:56 AM — Jul 26 11:56 AM, Dickinson, Weather by CustomWeather, © 2014

Note: Actual official high and low records may vary slightly from our data, if they occured in-between our weather recording intervals... More about our weather records

Advertising

Dickinson weather history for previous 24 hours

 ConditionsComfort  
Time TempWeatherWind HumidityBarometerVisibility
11:56 AM
Jul 26
70 °FPassing clouds.23 mph51%29.94 "Hg10 mi
10:56 AM70 °FScattered clouds.24 mph49%29.92 "Hg10 mi
9:56 AM67 °FSunny.21 mph55%29.92 "Hg10 mi
8:56 AM65 °FSunny.21 mph59%29.93 "Hg10 mi
7:56 AM62 °FSunny.22 mph62%29.91 "Hg10 mi
6:56 AM59 °FSunny.12 mph67%29.90 "Hg10 mi
5:56 AM56 °FClear.13 mph72%29.88 "Hg10 mi
4:56 AM54 °FClear.12 mph74%29.86 "Hg10 mi
3:56 AM52 °FClear.10 mph77%29.86 "Hg10 mi
2:56 AM55 °FClear.13 mph72%29.85 "Hg10 mi
1:56 AM57 °FClear.10 mph69%29.83 "Hg10 mi
12:56 AM61 °FClear.5 mph67%29.80 "Hg10 mi
11:56 PM
Jul 25
58 °FClear.8 mph78%29.81 "Hg10 mi
10:56 PM66 °FClear.10 mph61%29.80 "Hg10 mi
9:56 PM65 °FClear.12 mph66%29.79 "Hg10 mi
8:56 PM63 °FSunny.9 mph75%29.76 "Hg10 mi
7:56 PM72 °FSunny.8 mph64%29.74 "Hg10 mi
6:56 PM80 °FSunny.9 mph39%29.75 "Hg10 mi
5:56 PM82 °FSunny.7 mph35%29.75 "Hg10 mi
4:56 PM83 °FSunny.N/A26%29.76 "Hg10 mi
3:56 PM82 °FSunny.12 mph28%29.77 "Hg10 mi
2:56 PM81 °FSunny.13 mph26%29.79 "Hg10 mi
1:56 PM78 °FSunny.10 mph27%29.81 "Hg10 mi
Weather by CustomWeather, © 2014

See weather overviewHow to use our weather pages